CRG621 VVNB-EDDF

Flight info

Callsign CRG621
Flight time N/A
Altitude 28000
Route HUVAN W21 BQ B214 LADON/N0497F280 B214 AKSAG B465 CEA R460 OPESU/N0505F300 R460 LKN M890 JAL R594 DPN A589 BUTOP M875 NITIV/N0496F320 M875 DI N644 LEMOD A909 TUNEK/N0482F340 A909 RODAR M11 ERLEV T923 SUBUT T916 MATAL DCT TABAS DCT REBLO UM11 CRM UM688 EKSUK UL852 NEGEM DCT NEKUL/N0473F360 DCT MIVSA DCT MOPUG DCT STEIN DCT LNZ DCT SUBEN DCT AKINI T161 DEBHI DEBHI1C
Aircraft MD11/H-SDE1E2E3FGHIJ2J3J4J5M1RWXYZ/LB1D1

Departure

Time 2026-05-08 07:22
Airport Noi Bai International Airport (VVNB)

Arrival

Time N/A
Airport Frankfurt Main Airport (EDDF)
Time Latitude Longitude Altitude Speed Heading
2026-05-08 06:58 21.21472 105.80690 56 ft 0 kts 288°
2026-05-08 07:15 21.21472 105.80689 56 ft 1 kts 288°
2026-05-08 07:15 21.21477 105.80673 52 ft 4 kts 288°
2026-05-08 07:15 21.21493 105.80647 49 ft 4 kts 319°
2026-05-08 07:15 21.21543 105.80647 53 ft 8 kts 12°
2026-05-08 07:16 21.21585 105.80659 49 ft 9 kts 15°
2026-05-08 07:16 21.21643 105.80676 52 ft 8 kts 15°
2026-05-08 07:16 21.21683 105.80699 54 ft 5 kts 48°
2026-05-08 07:16 21.21689 105.80731 50 ft 5 kts 90°
2026-05-08 07:17 21.21679 105.80775 54 ft 7 kts 104°
2026-05-08 07:17 21.21662 105.80837 50 ft 10 kts 110°
2026-05-08 07:17 21.21639 105.80914 51 ft 12 kts 107°
2026-05-08 07:17 21.21612 105.81013 53 ft 15 kts 105°
2026-05-08 07:18 21.21578 105.81131 52 ft 18 kts 108°
2026-05-08 07:18 21.21540 105.81267 56 ft 20 kts 106°
2026-05-08 07:18 21.21496 105.81421 52 ft 23 kts 107°
2026-05-08 07:18 21.21449 105.81585 52 ft 22 kts 107°
2026-05-08 07:19 21.21407 105.81730 51 ft 19 kts 108°
2026-05-08 07:19 21.21369 105.81851 54 ft 15 kts 109°
2026-05-08 07:19 21.21338 105.81949 52 ft 12 kts 108°
2026-05-08 07:19 21.21318 105.82034 50 ft 11 kts 92°
2026-05-08 07:20 21.21348 105.82086 52 ft 8 kts 35°
2026-05-08 07:20 21.21402 105.82104 53 ft 8 kts 15°
2026-05-08 07:20 21.21454 105.82101 52 ft 7 kts 332°
2026-05-08 07:20 21.21474 105.82069 51 ft 4 kts 292°
2026-05-08 07:21 21.21501 105.81983 54 ft 36 kts 288°
2026-05-08 07:21 21.21649 105.81462 50 ft 109 kts 288°
2026-05-08 07:21 21.21943 105.80462 51 ft 170 kts 288°
2026-05-08 07:21 21.22349 105.79107 131 ft 203 kts 288°
2026-05-08 07:22 21.22742 105.77647 736 ft 202 kts 286°
2026-05-08 07:22 21.23136 105.76172 1376 ft 209 kts 289°
2026-05-08 07:22 21.23554 105.74698 2030 ft 211 kts 289°
2026-05-08 07:22 21.23989 105.73203 2676 ft 211 kts 289°
2026-05-08 07:23 21.24431 105.71685 3122 ft 215 kts 289°
2026-05-08 07:23 21.24893 105.70093 3296 ft 236 kts 289°
2026-05-08 07:23 21.25401 105.68343 3464 ft 257 kts 289°
2026-05-08 07:23 21.25950 105.66438 3612 ft 277 kts 288°
2026-05-08 07:24 21.26537 105.64395 3726 ft 297 kts 288°
2026-05-08 07:24 21.27160 105.62219 4027 ft 316 kts 288°
2026-05-08 07:24 21.27805 105.59958 4744 ft 320 kts 288°
2026-05-08 07:24 21.28460 105.57662 5476 ft 323 kts 287°
2026-05-08 07:25 21.29121 105.55344 6208 ft 328 kts 287°
2026-05-08 07:25 21.29790 105.52999 6993 ft 328 kts 286°
2026-05-08 07:25 21.30547 105.48181 8520 ft 332 kts 267°
2026-05-08 07:26 21.30375 105.45707 9236 ft 334 kts 264°
2026-05-08 07:26 21.30135 105.43231 9909 ft 336 kts 264°
2026-05-08 07:26 21.29901 105.40688 10174 ft 352 kts 264°
2026-05-08 07:26 21.29686 105.38013 10458 ft 365 kts 265°
2026-05-08 07:27 21.29494 105.35297 11048 ft 368 kts 266°
2026-05-08 07:27 21.29316 105.32549 11655 ft 370 kts 266°
2026-05-08 07:27 21.29150 105.29816 12187 ft 373 kts 266°
2026-05-08 07:27 21.28987 105.27034 12815 ft 375 kts 266°
2026-05-08 07:28 21.28825 105.24236 13395 ft 377 kts 267°
2026-05-08 07:28 21.28664 105.21425 13939 ft 379 kts 267°
2026-05-08 07:28 21.28501 105.18590 14405 ft 382 kts 267°
2026-05-08 07:28 21.28337 105.15738 14855 ft 385 kts 266°
2026-05-08 07:29 21.28172 105.12865 15288 ft 387 kts 266°
2026-05-08 07:29 21.28005 105.09970 15714 ft 390 kts 266°
2026-05-08 07:29 21.27836 105.07061 16177 ft 393 kts 266°
2026-05-08 07:29 21.27666 105.04128 16597 ft 395 kts 266°
2026-05-08 07:30 21.27494 105.01182 17012 ft 397 kts 266°
2026-05-08 07:30 21.27321 104.98215 17425 ft 400 kts 266°
2026-05-08 07:30 21.27145 104.95230 17824 ft 402 kts 266°
2026-05-08 07:30 21.26969 104.92229 18203 ft 405 kts 266°
2026-05-08 07:31 21.26790 104.89208 18570 ft 407 kts 266°
2026-05-08 07:31 21.26612 104.86191 18907 ft 408 kts 266°
2026-05-08 07:31 21.26431 104.83142 19244 ft 410 kts 266°
2026-05-08 07:31 21.26249 104.80089 19571 ft 412 kts 266°
2026-05-08 07:32 21.26065 104.77020 19897 ft 414 kts 266°
2026-05-08 07:32 21.25881 104.73937 20223 ft 415 kts 265°
2026-05-08 07:32 21.25694 104.70840 20534 ft 417 kts 265°
2026-05-08 07:32 21.25507 104.67734 20863 ft 419 kts 265°
2026-05-08 07:33 21.25318 104.64608 21195 ft 421 kts 265°
2026-05-08 07:33 21.25125 104.61476 21543 ft 422 kts 265°
2026-05-08 07:33 21.24926 104.58331 21873 ft 424 kts 265°
2026-05-08 07:33 21.24725 104.55168 22186 ft 426 kts 265°
2026-05-08 07:34 21.24528 104.52033 22536 ft 428 kts 265°
2026-05-08 07:34 21.24330 104.48846 22864 ft 430 kts 265°
2026-05-08 07:34 21.24131 104.45642 23214 ft 432 kts 265°
2026-05-08 07:34 21.23931 104.42424 23557 ft 434 kts 265°
2026-05-08 07:35 21.23731 104.39193 23862 ft 435 kts 265°
2026-05-08 07:35 21.23529 104.35948 24145 ft 437 kts 265°
2026-05-08 07:35 21.23326 104.32693 24441 ft 439 kts 265°
2026-05-08 07:35 21.23121 104.29421 24747 ft 441 kts 265°
2026-05-08 07:36 21.22915 104.26132 25036 ft 443 kts 265°
2026-05-08 07:36 21.22707 104.22833 25370 ft 444 kts 265°
2026-05-08 07:36 21.22499 104.19527 25720 ft 444 kts 265°
2026-05-08 07:36 21.22289 104.16219 26025 ft 446 kts 265°
2026-05-08 07:37 21.22078 104.12905 26316 ft 447 kts 265°
2026-05-08 07:37 21.21866 104.09573 26595 ft 449 kts 265°
2026-05-08 07:37 21.21651 104.06220 26858 ft 451 kts 265°
2026-05-08 07:37 21.21398 104.02858 27084 ft 454 kts 263°
2026-05-08 07:38 21.21082 103.99480 27307 ft 457 kts 263°
2026-05-08 07:38 21.20736 103.96086 27558 ft 459 kts 263°
2026-05-08 07:38 21.20381 103.92678 27821 ft 461 kts 263°
2026-05-08 07:38 21.20023 103.89250 27934 ft 464 kts 263°
2026-05-08 07:39 21.19664 103.85786 27960 ft 471 kts 263°
2026-05-08 07:39 21.19301 103.82266 27967 ft 478 kts 263°
2026-05-08 07:39 21.18937 103.78713 27967 ft 483 kts 263°
2026-05-08 07:39 21.18571 103.75131 27965 ft 485 kts 263°
2026-05-08 07:40 21.18203 103.71536 27964 ft 486 kts 263°
2026-05-08 07:40 21.17834 103.67931 27965 ft 486 kts 263°
2026-05-08 07:40 21.17465 103.64332 27962 ft 486 kts 263°
2026-05-08 07:40 21.17095 103.60730 27967 ft 486 kts 263°
2026-05-08 07:41 21.16724 103.57131 27964 ft 486 kts 263°
2026-05-08 07:41 21.16352 103.53537 27967 ft 486 kts 263°
2026-05-08 07:41 21.15979 103.49935 27966 ft 486 kts 263°
2026-05-08 07:41 21.15605 103.46331 27961 ft 487 kts 262°
2026-05-08 07:42 21.15230 103.42729 27962 ft 487 kts 262°
2026-05-08 07:42 21.14853 103.39118 27962 ft 488 kts 262°
2026-05-08 07:42 21.14480 103.35549 27964 ft 487 kts 262°
2026-05-08 07:42 21.14102 103.31940 27956 ft 487 kts 262°
2026-05-08 07:43 21.13724 103.28334 27961 ft 487 kts 262°
2026-05-08 07:43 21.13346 103.24733 27960 ft 487 kts 262°
2026-05-08 07:43 21.12971 103.21176 27963 ft 487 kts 262°
2026-05-08 07:43 21.12590 103.17569 27950 ft 487 kts 262°
2026-05-08 07:44 21.12204 103.13966 27951 ft 487 kts 262°
2026-05-08 07:44 21.11814 103.10361 27953 ft 487 kts 262°
2026-05-08 07:44 21.11424 103.06763 27950 ft 487 kts 262°
2026-05-08 07:44 21.11035 103.03153 27946 ft 487 kts 262°
2026-05-08 07:45 21.10649 102.99555 27944 ft 487 kts 262°
2026-05-08 07:45 21.10263 102.95951 27944 ft 487 kts 262°
2026-05-08 07:45 21.09877 102.92345 27944 ft 487 kts 262°
2026-05-08 07:45 21.09492 102.88747 27944 ft 487 kts 262°
2026-05-08 07:46 21.09106 102.85140 27939 ft 487 kts 262°
2026-05-08 07:46 21.08720 102.81534 27937 ft 487 kts 262°
2026-05-08 07:46 21.08334 102.77934 27938 ft 487 kts 262°
2026-05-08 07:46 21.07947 102.74331 27941 ft 487 kts 262°
2026-05-08 07:47 21.07559 102.70733 27939 ft 486 kts 262°
2026-05-08 07:47 21.07171 102.67133 27941 ft 487 kts 262°
2026-05-08 07:47 21.06782 102.63534 27941 ft 487 kts 262°
2026-05-08 07:47 21.06392 102.59934 27938 ft 487 kts 262°
2026-05-08 07:48 21.06001 102.56334 27935 ft 487 kts 262°
2026-05-08 07:48 21.05609 102.52733 27934 ft 487 kts 262°
2026-05-08 07:48 21.05216 102.49134 27938 ft 487 kts 262°
2026-05-08 07:48 21.04823 102.45530 27945 ft 487 kts 262°
2026-05-08 07:49 21.04429 102.41932 27945 ft 487 kts 262°
2026-05-08 07:49 21.04034 102.38332 27948 ft 487 kts 262°
2026-05-08 07:49 21.03639 102.34736 27949 ft 487 kts 262°
2026-05-08 07:49 21.03244 102.31146 27953 ft 486 kts 262°
2026-05-08 07:50 21.02847 102.27550 27952 ft 486 kts 262°
2026-05-08 07:50 21.02451 102.23962 27948 ft 486 kts 262°
2026-05-08 07:50 21.02052 102.20365 27951 ft 487 kts 262°
2026-05-08 07:50 21.01652 102.16760 27962 ft 487 kts 262°
2026-05-08 07:51 21.01252 102.13163 27965 ft 487 kts 262°
2026-05-08 07:51 21.00855 102.09608 27964 ft 487 kts 262°
2026-05-08 07:51 21.00442 102.05959 27965 ft 488 kts 262°
2026-05-08 07:51 21.00036 102.02408 27968 ft 487 kts 262°
2026-05-08 07:52 20.99627 101.98811 27967 ft 487 kts 262°
2026-05-08 07:52 20.99219 101.95215 27966 ft 487 kts 262°
2026-05-08 07:52 20.98814 101.91624 27963 ft 486 kts 262°
2026-05-08 07:52 20.98409 101.88035 27968 ft 486 kts 262°
2026-05-08 07:53 20.98003 101.84446 27971 ft 486 kts 262°
2026-05-08 07:53 20.97597 101.80850 27967 ft 486 kts 262°
2026-05-08 07:53 20.97190 101.77262 27968 ft 486 kts 262°
2026-05-08 07:53 20.96782 101.73668 27975 ft 486 kts 262°
2026-05-08 07:54 20.96373 101.70073 27977 ft 486 kts 262°
2026-05-08 07:54 20.95964 101.66484 27981 ft 486 kts 262°
2026-05-08 07:54 20.95554 101.62897 27983 ft 486 kts 262°
2026-05-08 07:54 20.95144 101.59309 27985 ft 486 kts 262°
2026-05-08 07:55 20.94731 101.55713 28011 ft 487 kts 262°
2026-05-08 07:55 20.94319 101.52122 28318 ft 487 kts 262°
2026-05-08 07:55 20.93906 101.48531 28636 ft 486 kts 262°
2026-05-08 07:55 20.93493 101.44945 28995 ft 485 kts 262°
2026-05-08 07:56 20.93080 101.41369 29340 ft 484 kts 262°
2026-05-08 07:56 20.92667 101.37797 29656 ft 483 kts 262°
2026-05-08 07:56 20.92253 101.34232 29918 ft 483 kts 262°
2026-05-08 07:57 20.91426 101.27110 29989 ft 480 kts 262°
2026-05-08 07:57 20.90604 101.20083 29973 ft 478 kts 262°
2026-05-08 07:58 20.89762 101.13028 29978 ft 478 kts 262°
2026-05-08 07:58 20.88925 101.05979 29981 ft 478 kts 262°
2026-05-08 07:59 20.88091 100.98925 29971 ft 478 kts 262°
2026-05-08 07:59 20.87255 100.91866 29972 ft 478 kts 261°
2026-05-08 08:00 20.86418 100.84813 29956 ft 478 kts 262°
2026-05-08 08:00 20.85577 100.77763 29961 ft 478 kts 261°
2026-05-08 08:01 20.84733 100.70717 29947 ft 478 kts 261°
2026-05-08 08:01 20.83886 100.63665 29945 ft 478 kts 261°
2026-05-08 08:02 20.83180 100.57805 29944 ft 478 kts 261°
2026-05-08 08:02 20.82345 100.50752 29935 ft 478 kts 263°
2026-05-08 08:03 20.82691 100.43658 29938 ft 482 kts 281°
2026-05-08 08:03 20.84610 100.36768 29931 ft 485 kts 286°
2026-05-08 08:04 20.86707 100.29920 29933 ft 484 kts 285°
2026-05-08 08:04 20.88650 100.23025 29927 ft 483 kts 284°
2026-05-08 08:05 20.90504 100.16127 29932 ft 482 kts 283°
2026-05-08 08:05 20.92341 100.09227 29933 ft 482 kts 283°
2026-05-08 08:06 20.94177 100.02336 29934 ft 482 kts 283°
2026-05-08 08:06 20.96013 99.95446 29931 ft 482 kts 283°
2026-05-08 08:07 20.97848 99.88550 29941 ft 482 kts 283°
2026-05-08 08:07 20.99679 99.81662 29953 ft 481 kts 283°
2026-05-08 08:08 21.01491 99.74827 29952 ft 481 kts 283°
2026-05-08 08:08 21.03312 99.67948 29955 ft 480 kts 283°
2026-05-08 08:09 21.05130 99.61066 29951 ft 480 kts 283°
2026-05-08 08:09 21.06932 99.54178 29953 ft 480 kts 283°
2026-05-08 08:10 21.08734 99.47295 29946 ft 480 kts 283°
2026-05-08 08:10 21.10543 99.40403 29947 ft 481 kts 283°
2026-05-08 08:11 21.12352 99.33511 29937 ft 481 kts 283°
2026-05-08 08:11 21.14158 99.26615 29937 ft 481 kts 283°
2026-05-08 08:12 21.15963 99.19715 29921 ft 481 kts 283°
2026-05-08 08:12 21.17756 99.12843 29920 ft 481 kts 283°
2026-05-08 08:13 21.19553 99.05945 29903 ft 479 kts 283°
2026-05-08 08:13 21.21337 98.99083 29904 ft 478 kts 283°
2026-05-08 08:14 21.23117 98.92224 29884 ft 478 kts 283°
2026-05-08 08:14 21.24892 98.85375 29888 ft 475 kts 282°
2026-05-08 08:15 21.26657 98.78547 29873 ft 475 kts 282°
2026-05-08 08:15 21.28412 98.71719 29882 ft 475 kts 282°
2026-05-08 08:16 21.30153 98.64910 29875 ft 473 kts 282°
2026-05-08 08:16 21.31894 98.58117 29880 ft 472 kts 282°
2026-05-08 08:17 21.33638 98.51322 29875 ft 473 kts 282°
2026-05-08 08:17 21.35383 98.44516 29872 ft 473 kts 282°
2026-05-08 08:18 21.37122 98.37718 29873 ft 472 kts 282°
2026-05-08 08:18 21.38857 98.30923 29874 ft 471 kts 282°
2026-05-08 08:19 21.40570 98.24205 29871 ft 471 kts 282°
2026-05-08 08:19 21.42293 98.17431 29875 ft 472 kts 282°
2026-05-08 08:20 21.44016 98.10646 29872 ft 471 kts 282°
2026-05-08 08:20 21.45731 98.03878 29879 ft 471 kts 282°
2026-05-08 08:21 21.47449 97.97086 29881 ft 471 kts 282°
2026-05-08 08:21 21.49163 97.90300 29880 ft 471 kts 282°
2026-05-08 08:22 21.50860 97.83523 29883 ft 471 kts 282°
2026-05-08 08:22 21.52555 97.76737 29885 ft 471 kts 282°
2026-05-08 08:23 21.54252 97.69968 29880 ft 471 kts 282°
2026-05-08 08:23 21.55949 97.63198 29882 ft 471 kts 282°
2026-05-08 08:24 21.57646 97.56420 29875 ft 470 kts 282°
2026-05-08 08:24 21.59337 97.49652 29876 ft 470 kts 282°
2026-05-08 08:25 21.61025 97.42880 29875 ft 469 kts 282°
2026-05-08 08:25 21.62709 97.36111 29873 ft 469 kts 281°
2026-05-08 08:26 21.64389 97.29348 29868 ft 469 kts 282°
2026-05-08 08:26 21.66068 97.22578 29865 ft 467 kts 282°
2026-05-08 08:27 21.67738 97.15827 29860 ft 467 kts 282°
2026-05-08 08:27 21.69396 97.09113 29850 ft 467 kts 282°
2026-05-08 08:28 21.71058 97.02367 29853 ft 467 kts 282°
2026-05-08 08:28 21.72709 96.95598 29848 ft 468 kts 281°
2026-05-08 08:29 21.74361 96.88828 29852 ft 467 kts 282°
2026-05-08 08:29 21.76013 96.82083 29847 ft 469 kts 281°
2026-05-08 08:30 21.77668 96.75316 29847 ft 471 kts 281°
2026-05-08 08:30 21.80165 96.65087 29855 ft 471 kts 281°
2026-05-08 08:31 21.81823 96.58282 29849 ft 471 kts 281°
2026-05-08 08:31 21.83470 96.51505 29849 ft 471 kts 281°
2026-05-08 08:32 21.85118 96.44707 29827 ft 469 kts 281°
2026-05-08 08:32 21.86760 96.37925 29832 ft 470 kts 281°
2026-05-08 08:33 21.88406 96.31116 29834 ft 470 kts 281°
2026-05-08 08:33 21.90041 96.24332 29836 ft 469 kts 281°
2026-05-08 08:34 21.91680 96.17522 29824 ft 470 kts 281°
2026-05-08 08:34 21.93304 96.10712 29819 ft 470 kts 281°
2026-05-08 08:35 21.94462 96.03852 29815 ft 462 kts 273°
2026-05-08 08:35 21.95039 95.96968 29819 ft 461 kts 271°
2026-05-08 08:36 21.95563 95.90090 29817 ft 461 kts 271°
2026-05-08 08:36 21.96131 95.83212 29820 ft 461 kts 272°
2026-05-08 08:37 21.96717 95.76346 29826 ft 461 kts 272°
2026-05-08 08:37 21.97306 95.69472 29812 ft 460 kts 272°
2026-05-08 08:38 21.97890 95.62623 29820 ft 459 kts 272°
2026-05-08 08:38 21.98468 95.55779 29819 ft 459 kts 272°
2026-05-08 08:39 21.99044 95.48928 29819 ft 459 kts 272°
2026-05-08 08:39 21.99618 95.42075 29826 ft 459 kts 272°
2026-05-08 08:40 22.00188 95.35227 29825 ft 459 kts 272°
2026-05-08 08:40 22.00755 95.28389 29825 ft 458 kts 271°
2026-05-08 08:41 22.01315 95.21590 29826 ft 458 kts 271°
2026-05-08 08:41 22.01869 95.14703 29835 ft 458 kts 271°
2026-05-08 08:42 22.02411 95.07901 29830 ft 458 kts 271°
2026-05-08 08:42 22.02957 95.01111 29840 ft 458 kts 271°
2026-05-08 08:43 22.03513 94.94224 29833 ft 458 kts 271°
2026-05-08 08:43 22.04063 94.87372 29841 ft 459 kts 271°
2026-05-08 08:44 22.04607 94.80565 29842 ft 459 kts 271°
2026-05-08 08:44 22.05152 94.73707 29846 ft 459 kts 271°
2026-05-08 08:45 22.05693 94.66856 29859 ft 459 kts 271°
2026-05-08 08:45 22.06233 94.59998 29855 ft 459 kts 271°
2026-05-08 08:46 22.06769 94.53144 29864 ft 459 kts 271°